Time,TemperatureF,DewpointF,PressureIn,WindDirection,WindDirectionDegrees,WindSpeedMPH,WindSpeedGustMPH,Humidity,HourlyPrecipIn,Conditions,Clouds,dailyrainin,SoftwareType,DateUTC
2013-02-14 00:02:00,46.0,39.0,-100.00,NW,315,5.0,12.0,76,-99.99,,,-99.99,,2013-02-14 05:02:00,
2013-02-14 00:11:00,46.0,39.0,-100.00,WNW,300,5.0,10.0,77,-99.99,,,-99.99,,2013-02-14 05:11:00,
2013-02-14 00:22:00,46.0,39.0,-100.00,WNW,300,5.0,10.0,77,-99.99,,,-99.99,,2013-02-14 05:22:00,
2013-02-14 00:32:00,45.0,39.0,-100.00,WNW,290,6.0,9.0,79,-99.99,,,-99.99,,2013-02-14 05:32:00,
2013-02-14 00:42:00,45.0,40.0,-100.00,WNW,295,6.0,10.0,80,-99.99,,,-99.99,,2013-02-14 05:42:00,
2013-02-14 00:52:00,45.0,39.0,-100.00,WNW,300,5.0,11.0,80,-99.99,,,-99.99,,2013-02-14 05:52:00,
2013-02-14 01:02:00,45.0,39.0,-100.00,WNW,285,4.0,9.0,80,-99.99,,,-99.99,,2013-02-14 06:02:00,
2013-02-14 01:11:00,45.0,39.0,-100.00,WNW,290,5.0,9.0,81,-99.99,,,-99.99,,2013-02-14 06:11:00,
2013-02-14 01:21:00,45.0,39.0,-100.00,NW,310,6.0,10.0,81,-99.99,,,-99.99,,2013-02-14 06:21:00,
2013-02-14 01:32:00,44.0,39.0,-100.00,NW,320,5.0,10.0,81,-99.99,,,-99.99,,2013-02-14 06:32:00,
2013-02-14 01:42:00,44.0,39.0,-100.00,NW,320,6.0,12.0,81,-99.99,,,-99.99,,2013-02-14 06:42:00,
2013-02-14 01:51:00,44.0,37.0,-100.00,NW,315,9.0,15.0,77,-99.99,,,-99.99,,2013-02-14 06:51:00,
2013-02-14 02:01:00,44.0,37.0,-100.00,NW,315,9.0,14.0,75,-99.99,,,-99.99,,2013-02-14 07:01:00,
2013-02-14 02:11:00,44.0,36.0,-100.00,WNW,295,8.0,14.0,74,-99.99,,,-99.99,,2013-02-14 07:11:00,
2013-02-14 02:21:00,44.0,36.0,-100.00,NW,325,6.0,10.0,74,-99.99,,,-99.99,,2013-02-14 07:21:00,
2013-02-14 02:32:00,44.0,36.0,-100.00,NW,320,5.0,9.0,75,-99.99,,,-99.99,,2013-02-14 07:32:00,
2013-02-14 02:42:00,43.0,36.0,-100.00,WNW,285,5.0,11.0,77,-99.99,,,-99.99,,2013-02-14 07:42:00,
2013-02-14 02:52:00,43.0,37.0,-100.00,WNW,290,4.0,9.0,78,-99.99,,,-99.99,,2013-02-14 07:52:00,
2013-02-14 03:01:00,43.0,37.0,-100.00,WNW,285,4.0,9.0,80,-99.99,,,-99.99,,2013-02-14 08:01:00,
2013-02-14 03:11:00,42.0,37.0,-100.00,WNW,295,5.0,9.0,80,-99.99,,,-99.99,,2013-02-14 08:11:00,
2013-02-14 03:22:00,42.0,37.0,-100.00,NW,305,4.0,9.0,80,-99.99,,,-99.99,,2013-02-14 08:22:00,
2013-02-14 03:32:00,42.0,36.0,-100.00,NNW,335,4.0,9.0,80,-99.99,,,-99.99,,2013-02-14 08:32:00,
2013-02-14 03:43:00,42.0,36.0,-100.00,NW,320,4.0,9.0,81,-99.99,,,-99.99,,2013-02-14 08:43:00,
2013-02-14 03:52:00,42.0,36.0,-100.00,NW,310,4.0,8.0,81,-99.99,,,-99.99,,2013-02-14 08:52:00,
2013-02-14 04:02:00,41.0,36.0,-100.00,NW,315,4.0,6.0,82,-99.99,,,-99.99,,2013-02-14 09:02:00,
2013-02-14 04:11:00,41.0,36.0,-100.00,NW,315,4.0,6.0,84,-99.99,,,-99.99,,2013-02-14 09:11:00,
2013-02-14 04:21:00,40.0,36.0,-100.00,WNW,300,4.0,6.0,84,-99.99,,,-99.99,,2013-02-14 09:21:00,
2013-02-14 04:32:00,40.0,36.0,-100.00,NW,315,3.0,8.0,85,-99.99,,,-99.99,,2013-02-14 09:32:00,
2013-02-14 04:42:00,40.0,36.0,-100.00,NW,305,1.0,3.0,85,-99.99,,,-99.99,,2013-02-14 09:42:00,
2013-02-14 04:52:00,39.0,35.0,-100.00,NNW,335,1.0,4.0,86,-99.99,,,-99.99,,2013-02-14 09:52:00,
2013-02-14 05:02:00,39.0,35.0,-100.00,WNW,290,1.0,4.0,87,-99.99,,,-99.99,,2013-02-14 10:02:00,
2013-02-14 05:11:00,39.0,35.0,-100.00,West,260,0.0,1.0,88,-99.99,,,-99.99,,2013-02-14 10:11:00,
2013-02-14 05:21:00,38.0,35.0,-100.00,WSW,245,0.0,0.0,89,-99.99,,,-99.99,,2013-02-14 10:21:00,
2013-02-14 05:32:00,37.0,34.0,-100.00,WNW,290,1.0,1.0,89,-99.99,,,-99.99,,2013-02-14 10:32:00,
2013-02-14 05:42:00,36.0,34.0,-100.00,NNW,345,2.0,4.0,90,-99.99,,,-99.99,,2013-02-14 10:42:00,
2013-02-14 05:52:00,36.0,34.0,-100.00,NW,320,1.0,4.0,91,-99.99,,,-99.99,,2013-02-14 10:52:00,
2013-02-14 06:02:00,37.0,35.0,-100.00,NNW,345,3.0,5.0,91,-99.99,,,-99.99,,2013-02-14 11:02:00,
2013-02-14 06:11:00,37.0,35.0,-100.00,NNW,340,2.0,5.0,91,-99.99,,,-99.99,,2013-02-14 11:11:00,
2013-02-14 06:22:00,38.0,35.0,-100.00,North,5,4.0,5.0,91,-99.99,,,-99.99,,2013-02-14 11:22:00,
2013-02-14 06:32:00,37.0,35.0,-100.00,NNW,335,1.0,5.0,91,-99.99,,,-99.99,,2013-02-14 11:32:00,
2013-02-14 06:42:00,37.0,34.0,-100.00,North,10,2.0,4.0,91,-99.99,,,-99.99,,2013-02-14 11:42:00,
2013-02-14 06:52:00,38.0,35.0,-100.00,North,350,5.0,6.0,90,-99.99,,,-99.99,,2013-02-14 11:52:00,
2013-02-14 07:02:00,38.0,35.0,-100.00,NW,315,6.0,10.0,88,-99.99,,,-99.99,,2013-02-14 12:02:00,
2013-02-14 07:12:00,38.0,34.0,-100.00,NW,320,4.0,7.0,88,-99.99,,,-99.99,,2013-02-14 12:12:00,
2013-02-14 07:22:00,37.0,34.0,-100.00,NNW,345,4.0,6.0,88,-99.99,,,-99.99,,2013-02-14 12:22:00,
2013-02-14 07:32:00,37.0,34.0,-100.00,NNW,345,3.0,6.0,89,-99.99,,,-99.99,,2013-02-14 12:32:00,
2013-02-14 07:42:00,37.0,34.0,-100.00,WNW,300,2.0,4.0,89,-99.99,,,-99.99,,2013-02-14 12:42:00,
2013-02-14 07:53:00,36.0,33.0,-100.00,West,265,1.0,4.0,89,-99.99,,,-99.99,,2013-02-14 12:53:00,
2013-02-14 08:02:00,36.0,34.0,-100.00,WSW,245,1.0,2.0,90,-99.99,,,-99.99,,2013-02-14 13:02:00,
2013-02-14 08:11:00,37.0,34.0,-100.00,NNW,345,1.0,3.0,91,-99.99,,,-99.99,,2013-02-14 13:11:00,
2013-02-14 08:21:00,37.0,35.0,-100.00,North,0,1.0,4.0,91,-99.99,,,-99.99,,2013-02-14 13:21:00,
2013-02-14 08:32:00,37.0,35.0,-100.00,North,0,1.0,4.0,91,-99.99,,,-99.99,,2013-02-14 13:32:00,
2013-02-14 08:42:00,38.0,36.0,-100.00,NNW,340,2.0,4.0,92,-99.99,,,-99.99,,2013-02-14 13:42:00,
2013-02-14 08:51:00,38.0,36.0,-100.00,NW,305,2.0,5.0,92,-99.99,,,-99.99,,2013-02-14 13:51:00,
2013-02-14 09:01:00,39.0,36.0,-100.00,NNW,345,4.0,6.0,91,-99.99,,,-99.99,,2013-02-14 14:01:00,
2013-02-14 09:11:00,39.0,37.0,-100.00,NNW,345,3.0,5.0,91,-99.99,,,-99.99,,2013-02-14 14:11:00,
2013-02-14 09:21:00,39.0,37.0,-100.00,NW,325,4.0,7.0,90,-99.99,,,-99.99,,2013-02-14 14:21:00,
2013-02-14 09:32:00,39.0,36.0,-100.00,NW,315,2.0,8.0,89,-99.99,,,-99.99,,2013-02-14 14:32:00,
2013-02-14 09:42:00,40.0,36.0,-100.00,NNW,335,4.0,6.0,88,-99.99,,,-99.99,,2013-02-14 14:42:00,
2013-02-14 09:52:00,40.0,37.0,-100.00,NNW,335,2.0,5.0,88,-99.99,,,-99.99,,2013-02-14 14:52:00,
2013-02-14 10:02:00,40.0,37.0,-100.00,NNW,330,3.0,4.0,87,-99.99,,,-99.99,,2013-02-14 15:02:00,
2013-02-14 10:11:00,41.0,37.0,-100.00,NNW,335,2.0,6.0,86,-99.99,,,-99.99,,2013-02-14 15:11:00,
2013-02-14 10:22:00,41.0,37.0,-100.00,NNW,335,4.0,6.0,84,-99.99,,,-99.99,,2013-02-14 15:22:00,
2013-02-14 10:32:00,41.0,36.0,-100.00,NNW,345,4.0,7.0,82,-99.99,,,-99.99,,2013-02-14 15:32:00,
2013-02-14 10:42:00,42.0,37.0,-100.00,North,350,2.0,5.0,81,-99.99,,,-99.99,,2013-02-14 15:42:00,
2013-02-14 10:52:00,42.0,37.0,-100.00,NNE,30,1.0,4.0,80,-99.99,,,-99.99,,2013-02-14 15:52:00,
2013-02-14 11:02:00,44.0,37.0,-100.00,NNE,20,1.0,4.0,77,-99.99,,,-99.99,,2013-02-14 16:02:00,
2013-02-14 11:11:00,45.0,37.0,-100.00,NNW,340,1.0,4.0,73,-99.99,,,-99.99,,2013-02-14 16:11:00,
2013-02-14 11:22:00,46.0,37.0,-100.00,NNW,340,2.0,4.0,72,-99.99,,,-99.99,,2013-02-14 16:22:00,
2013-02-14 11:32:00,46.0,37.0,-100.00,NNW,340,2.0,4.0,72,-99.99,,,-99.99,,2013-02-14 16:32:00,
2013-02-14 11:42:00,46.0,36.0,-100.00,NNE,30,0.0,4.0,66,-99.99,,,-99.99,,2013-02-14 16:42:00,
2013-02-14 11:51:00,46.0,36.0,-100.00,NNE,30,0.0,4.0,66,-99.99,,,-99.99,,2013-02-14 16:51:00,
2013-02-14 12:01:00,48.0,34.0,-100.00,ENE,75,2.0,4.0,58,-99.99,,,-99.99,,2013-02-14 17:01:00,
2013-02-14 12:11:00,49.0,34.0,-100.00,NE,50,2.0,6.0,57,-99.99,,,-99.99,,2013-02-14 17:11:00,
2013-02-14 12:21:00,49.0,34.0,-100.00,ENE,70,1.0,6.0,56,-99.99,,,-99.99,,2013-02-14 17:21:00,
2013-02-14 12:32:00,50.0,34.0,-100.00,ENE,60,0.0,5.0,54,-99.99,,,-99.99,,2013-02-14 17:32:00,
2013-02-14 12:42:00,49.0,33.0,-100.00,North,350,2.0,6.0,53,-99.99,,,-99.99,,2013-02-14 17:42:00,
2013-02-14 12:52:00,49.0,33.0,-100.00,North,350,2.0,6.0,53,-99.99,,,-99.99,,2013-02-14 17:52:00,
2013-02-14 13:02:00,51.0,34.0,-100.00,South,175,0.0,1.0,52,-99.99,,,-99.99,,2013-02-14 18:02:00,
2013-02-14 13:11:00,51.0,34.0,-100.00,ESE,115,1.0,3.0,51,-99.99,,,-99.99,,2013-02-14 18:11:00,
2013-02-14 13:23:00,51.0,33.0,-100.00,SE,135,1.0,4.0,51,-99.99,,,-99.99,,2013-02-14 18:23:00,
2013-02-14 13:32:00,51.0,34.0,-100.00,South,180,0.0,4.0,52,-99.99,,,-99.99,,2013-02-14 18:32:00,
2013-02-14 13:42:00,51.0,34.0,-100.00,ENE,60,1.0,4.0,51,-99.99,,,-99.99,,2013-02-14 18:42:00,
2013-02-14 13:52:00,51.0,33.0,-100.00,South,175,4.0,6.0,51,-99.99,,,-99.99,,2013-02-14 18:52:00,
2013-02-14 14:02:00,51.0,34.0,-100.00,South,185,4.0,7.0,52,-99.99,,,-99.99,,2013-02-14 19:02:00,
2013-02-14 14:11:00,51.0,34.0,-100.00,South,185,4.0,7.0,52,-99.99,,,-99.99,,2013-02-14 19:11:00,
2013-02-14 14:22:00,52.0,35.0,-100.00,SSE,150,4.0,8.0,52,-99.99,,,-99.99,,2013-02-14 19:22:00,
2013-02-14 14:32:00,52.0,34.0,-100.00,SSE,160,5.0,9.0,51,-99.99,,,-99.99,,2013-02-14 19:32:00,
2013-02-14 14:42:00,52.0,35.0,-100.00,WSW,250,5.0,10.0,52,-99.99,,,-99.99,,2013-02-14 19:42:00,
2013-02-14 14:52:00,51.0,34.0,-100.00,South,175,1.0,8.0,52,-99.99,,,-99.99,,2013-02-14 19:52:00,
2013-02-14 15:01:00,52.0,35.0,-100.00,SSW,205,4.0,8.0,52,-99.99,,,-99.99,,2013-02-14 20:01:00,
2013-02-14 15:11:00,52.0,35.0,-100.00,SW,220,7.0,11.0,52,-99.99,,,-99.99,,2013-02-14 20:11:00,
2013-02-14 15:21:00,52.0,35.0,-100.00,SW,230,6.0,9.0,52,-99.99,,,-99.99,,2013-02-14 20:21:00,
2013-02-14 15:32:00,51.0,34.0,-100.00,SW,225,4.0,9.0,52,-99.99,,,-99.99,,2013-02-14 20:32:00,
2013-02-14 15:42:00,52.0,35.0,-100.00,WSW,240,6.0,9.0,51,-99.99,,,-99.99,,2013-02-14 20:42:00,
2013-02-14 15:52:00,53.0,34.0,-100.00,SW,215,4.0,9.0,49,-99.99,,,-99.99,,2013-02-14 20:52:00,
2013-02-14 16:02:00,53.0,34.0,-100.00,West,260,1.0,6.0,47,-99.99,,,-99.99,,2013-02-14 21:02:00,
2013-02-14 16:11:00,53.0,33.0,-100.00,West,280,5.0,7.0,47,-99.99,,,-99.99,,2013-02-14 21:11:00,
2013-02-14 16:22:00,52.0,33.0,-100.00,SW,225,5.0,7.0,48,-99.99,,,-99.99,,2013-02-14 21:22:00,
2013-02-14 16:32:00,53.0,33.0,-100.00,SW,215,3.0,7.0,48,-99.99,,,-99.99,,2013-02-14 21:32:00,
2013-02-14 16:42:00,52.0,33.0,-100.00,SW,230,4.0,7.0,49,-99.99,,,-99.99,,2013-02-14 21:42:00,
2013-02-14 16:51:00,52.0,33.0,-100.00,West,275,0.0,7.0,48,-99.99,,,-99.99,,2013-02-14 21:51:00,
2013-02-14 17:02:00,52.0,33.0,-100.00,NNW,330,3.0,4.0,48,-99.99,,,-99.99,,2013-02-14 22:02:00,
2013-02-14 17:11:00,52.0,33.0,-100.00,West,260,2.0,5.0,48,-99.99,,,-99.99,,2013-02-14 22:11:00,
2013-02-14 17:21:00,51.0,32.0,-100.00,NW,310,1.0,5.0,48,-99.99,,,-99.99,,2013-02-14 22:21:00,
2013-02-14 17:32:00,51.0,33.0,-100.00,NW,305,1.0,3.0,49,-99.99,,,-99.99,,2013-02-14 22:32:00,
2013-02-14 17:42:00,51.0,33.0,-100.00,NW,315,1.0,3.0,49,-99.99,,,-99.99,,2013-02-14 22:42:00,
2013-02-14 17:51:00,51.0,32.0,-100.00,NNW,335,1.0,3.0,49,-99.99,,,-99.99,,2013-02-14 22:51:00,
2013-02-14 18:01:00,50.0,33.0,-100.00,NNW,335,4.0,5.0,51,-99.99,,,-99.99,,2013-02-14 23:01:00,
2013-02-14 18:11:00,50.0,33.0,-100.00,NNW,340,3.0,6.0,51,-99.99,,,-99.99,,2013-02-14 23:11:00,
2013-02-14 18:21:00,50.0,33.0,-100.00,NNW,345,3.0,4.0,52,-99.99,,,-99.99,,2013-02-14 23:21:00,
2013-02-14 18:32:00,49.0,33.0,-100.00,NW,305,1.0,4.0,52,-99.99,,,-99.99,,2013-02-14 23:32:00,
2013-02-14 18:42:00,48.0,34.0,-100.00,WNW,285,0.0,0.0,58,-99.99,,,-99.99,,2013-02-14 23:42:00,
2013-02-14 18:52:00,47.0,35.0,-100.00,West,270,0.0,0.0,62,-99.99,,,-99.99,,2013-02-14 23:52:00,
2013-02-14 19:02:00,46.0,36.0,-100.00,West,270,0.0,0.0,66,-99.99,,,-99.99,,2013-02-15 00:02:00,
2013-02-14 19:11:00,45.0,36.0,-100.00,WSW,245,0.0,0.0,69,-99.99,,,-99.99,,2013-02-15 00:11:00,
2013-02-14 19:22:00,45.0,36.0,-100.00,WSW,245,0.0,0.0,72,-99.99,,,-99.99,,2013-02-15 00:22:00,
2013-02-14 19:32:00,45.0,37.0,-100.00,SW,220,1.0,2.0,75,-99.99,,,-99.99,,2013-02-15 00:32:00,
2013-02-14 19:42:00,44.0,37.0,-100.00,South,180,3.0,4.0,76,-99.99,,,-99.99,,2013-02-15 00:42:00,
2013-02-14 19:52:00,44.0,37.0,-100.00,South,180,3.0,4.0,76,-99.99,,,-99.99,,2013-02-15 00:52:00,
2013-02-14 20:02:00,43.0,37.0,-100.00,West,270,0.0,0.0,79,-99.99,,,-99.99,,2013-02-15 01:02:00,
2013-02-14 20:11:00,42.0,37.0,-100.00,West,265,0.0,1.0,81,-99.99,,,-99.99,,2013-02-15 01:11:00,
2013-02-14 20:21:00,42.0,37.0,-100.00,WSW,245,1.0,1.0,82,-99.99,,,-99.99,,2013-02-15 01:21:00,
2013-02-14 20:32:00,42.0,37.0,-100.00,WSW,245,1.0,1.0,82,-99.99,,,-99.99,,2013-02-15 01:32:00,
2013-02-14 20:42:00,41.0,37.0,-100.00,SSW,195,1.0,4.0,86,-99.99,,,-99.99,,2013-02-15 01:42:00,
2013-02-14 20:51:00,41.0,37.0,-100.00,South,180,3.0,4.0,86,-99.99,,,-99.99,,2013-02-15 01:51:00,
2013-02-14 21:01:00,42.0,38.0,-100.00,South,170,3.0,4.0,85,-99.99,,,-99.99,,2013-02-15 02:01:00,
2013-02-14 21:11:00,42.0,38.0,-100.00,SSE,160,2.0,4.0,85,-99.99,,,-99.99,,2013-02-15 02:11:00,
2013-02-14 21:21:00,41.0,36.0,-100.00,SSE,155,0.0,2.0,85,-99.99,,,-99.99,,2013-02-15 02:21:00,
2013-02-14 21:32:00,40.0,36.0,-100.00,South,180,0.0,1.0,85,-99.99,,,-99.99,,2013-02-15 02:32:00,
2013-02-14 21:42:00,39.0,35.0,-100.00,South,180,0.0,0.0,86,-99.99,,,-99.99,,2013-02-15 02:42:00,
2013-02-14 21:52:00,39.0,36.0,-100.00,South,180,0.0,0.0,88,-99.99,,,-99.99,,2013-02-15 02:52:00,
2013-02-14 22:02:00,39.0,36.0,-100.00,SW,220,0.0,0.0,89,-99.99,,,-99.99,,2013-02-15 03:02:00,
2013-02-14 22:11:00,38.0,35.0,-100.00,SW,230,0.0,0.0,90,-99.99,,,-99.99,,2013-02-15 03:11:00,
2013-02-14 22:22:00,38.0,35.0,-100.00,SW,230,0.0,0.0,90,-99.99,,,-99.99,,2013-02-15 03:22:00,
2013-02-14 22:32:00,38.0,35.0,-100.00,SW,225,1.0,2.0,91,-99.99,,,-99.99,,2013-02-15 03:32:00,
2013-02-14 22:42:00,38.0,35.0,-100.00,SSW,200,1.0,2.0,91,-99.99,,,-99.99,,2013-02-15 03:42:00,
2013-02-14 22:52:00,37.0,35.0,-100.00,SW,215,0.0,2.0,92,-99.99,,,-99.99,,2013-02-15 03:52:00,
2013-02-14 23:02:00,38.0,36.0,-100.00,SSW,210,1.0,2.0,92,-99.99,,,-99.99,,2013-02-15 04:02:00,
2013-02-14 23:11:00,37.0,35.0,-100.00,SW,225,1.0,3.0,92,-99.99,,,-99.99,,2013-02-15 04:11:00,
2013-02-14 23:21:00,37.0,35.0,-100.00,SW,225,2.0,3.0,92,-99.99,,,-99.99,,2013-02-15 04:21:00,
2013-02-14 23:32:00,38.0,35.0,-100.00,SW,235,2.0,3.0,92,-99.99,,,-99.99,,2013-02-15 04:32:00,
2013-02-14 23:42:00,38.0,35.0,-100.00,WSW,255,2.0,4.0,92,-99.99,,,-99.99,,2013-02-15 04:42:00,
2013-02-14 23:52:00,38.0,37.0,-100.00,SW,235,0.0,3.0,93,-99.99,,,-99.99,,2013-02-15 04:52:00,